Flight Track Log - Related Links

Times and Time Zones

All times are in EDT time to prevent confusion due to time zone crossing. See the FSR411 flight status page for this flight to view local times or setup timezone preferences in your user account.

Time Position Orientation Groundspeed Altitude Reporting Facility
EDT Latitude Longitude Course Direction KTS MPH feet Rate Location/Type
Fri 11:41:01 41.7500 -87.6333 135° Southeast 257 296 5,200  Level Chicago TRACON
Fri 11:42:01 41.6833 -87.6667 200° South 282 325 6,000 400 Climbing Chicago TRACON
Fri 11:43:01 41.6500 -87.7500 242° Southwest 264 304 6,000 843 Level Chicago TRACON
Fri 11:44:02 41.5833 -87.8167 217° Southwest 275 316 7,700 2,139 Climbing Chicago TRACON
Fri 11:44:56 41.5333 -87.8833 225° Southwest 298 343 10,100 2,329 Climbing Chicago TRACON
Fri 11:45:27 41.5003 -87.9222 221° Southwest 292 336 11,000 1,161 Climbing Chicago Center
Fri 11:46:29 41.4342 -87.9983 221° Southwest 305 351 11,900 484 Climbing Chicago Center
Fri 11:47:31 41.3494 -88.0533 206° Southwest 343 395 12,000 48 Climbing Chicago Center
Fri 11:48:33 41.2489 -88.0836 193° South 369 425 12,000  Level Chicago Center
Fri 11:49:36 41.1442 -88.0969 185° South 378 435 12,000  Level Chicago Center
Fri 11:50:38 41.0381 -88.1086 185° South 383 441 12,000  Level Chicago Center
Fri 11:51:40 40.9297 -88.1211 185° South 390 449 12,000  Level Chicago Center
Fri 11:52:42 40.7997 -88.1372 185° South 392 451 12,000 -145 Level Chicago Center
Fri 11:53:44 40.6914 -88.1497 185° South 392 451 11,700 -435 Descending Chicago Center
Fri 11:54:46 40.5864 -88.1628 185° South 385 443 11,100 -339 Descending Chicago Center
Fri 11:55:48 40.4839 -88.1850 189° South 378 435 11,000 -145 Descending Chicago Center
Fri 11:56:50 40.3817 -88.2064 189° South 373 429 10,800 -1,161 Descending Chicago Center
Fri 11:57:52 40.2800 -88.2364 193° South 316 364 8,600 -2,032 Descending Chicago Center
Fri 11:58:54 40.2011 -88.2653 196° South 300 345 6,600 -1,887 Descending Chicago Center
Fri 11:59:56 40.1222 -88.2933 195° South 288 331 4,700 -1,306 Descending Chicago Center
Fri 12:00:58 40.0711 -88.3361 213° Southwest 226 260 3,900 -823 Descending Chicago Center
Fri 12:02:00 40.0247 -88.3825 217° Southwest 206 237 3,000 -871 Descending Chicago Center
Fri 12:03:00 40.0388 -88.2778 78° East  Level Estimated
Fri 12:10:00 40.0388 -88.2778 78° East  Level Estimated
Fri 12:11:00 40.0388 -88.2778 78° East  Level Estimated

Login

Don't have an account? Register now (free) for customized features, flight alerts, and more!